This is the latest recevied weather packets stored in our database for station/object KF8LO-1. If no packets are shown the sender has not sent any weather packets the latest 10 day(s).
| Time | Temp. | Humidity | Pressure | Rain* | Wind** | Luminosity | Snow |
|---|---|---|---|---|---|---|---|
| 1777670592 | 12.22° C | 41% | 0 hPa | 0 mm | - | - | - |
| 1777670292 | 12.22° C | 39% | 0 hPa | 0 mm | - | - | - |
| 1777669992 | 12.78° C | 37% | 0 hPa | 0 mm | - | - | - |
| 1777669692 | 12.78° C | 38% | 0 hPa | 0 mm | - | - | - |
| 1777669392 | 13.33° C | 37% | 0 hPa | 0 mm | - | - | - |
| 1777669092 | 13.89° C | 35% | 0 hPa | 0 mm | - | - | - |
| 1777668792 | 13.89° C | 38% | 0 hPa | 0 mm | - | - | - |
| 1777668492 | 14.44° C | 34% | 0 hPa | 0 mm | - | - | - |
| 1777668192 | 14.44° C | 36% | 0 hPa | 0 mm | - | - | - |
| 1777667892 | 13.89° C | 35% | 0 hPa | 0 mm | - | - | - |
| 1777667592 | 13.89° C | 36% | 0 hPa | 0 mm | - | - | - |
| 1777667292 | 13.89° C | 36% | 0 hPa | 0 mm | - | - | - |
| 1777666992 | 13.89° C | 36% | 0 hPa | 0 mm | - | - | - |
| 1777666692 | 13.89° C | 38% | 0 hPa | 0 mm | - | - | - |
| 1777666392 | 13.89° C | 36% | 0 hPa | 0 mm | - | - | - |
| 1777666092 | 13.89° C | 37% | 0 hPa | 0 mm | - | - | - |
| 1777665792 | 13.33° C | 38% | 0 hPa | 0 mm | - | - | - |
| 1777665492 | 13.33° C | 38% | 0 hPa | 0 mm | - | - | - |
| 1777665192 | 13.33° C | 39% | 0 hPa | 0 mm | - | - | - |
| 1777664892 | 13.33° C | 36% | 0 hPa | 0 mm | - | - | - |
| 1777664592 | 13.33° C | 36% | 0 hPa | 0 mm | - | - | - |
| 1777664292 | 13.33° C | 38% | 0 hPa | 0 mm | - | - | - |
| 1777663992 | 13.33° C | 37% | 0 hPa | 0 mm | - | - | - |
| 1777663692 | 13.89° C | 39% | 0 hPa | 0 mm | - | - | - |
| 1777663392 | 13.89° C | 38% | 0 hPa | 0 mm | - | - | - |
* Rain latest hour (hover to see other rain measurements)
** Current wind speed in m/s (hover to see current wind gust speed)